Overview Statistics Trail Chart Weather Telemetry Raw packets
 

This is the latest recevied weather packets stored in our database for station/object OK1FET-14. If no packets are shown the sender has not sent any weather packets the latest 10 day(s).

<< 49 50 51 52 53 54 55 >>
Time Temp. Humidity Pressure Rain* Wind** Luminosity Snow
1788615105 21.67° C 42% 1021 hPa - - - -
1788615105 21.67° C 42% 1021 hPa - - - -
1788615105 21.67° C 42% 1021 hPa - - - -
1788614824 21.67° C 42% 1021.1 hPa - - - -
1788614824 21.67° C 42% 1021.1 hPa - - - -
1788614824 21.67° C 42% 1021.1 hPa - - - -
1788614543 22.22° C 41% 1021.1 hPa - - - -
1788614543 22.22° C 41% 1021.1 hPa - - - -
1788614543 22.22° C 41% 1021.1 hPa - - - -
1788614262 22.78° C 40% 1020.9 hPa - - - -
1788614262 22.78° C 40% 1020.9 hPa - - - -
1788613981 22.22° C 42% 1020.9 hPa - - - -
1788613981 22.22° C 42% 1020.9 hPa - - - -
1788613981 22.22° C 42% 1020.9 hPa - - - -
1788613700 20.56° C 45% 1021 hPa - - - -
1788613700 20.56° C 45% 1021 hPa - - - -
1788613700 20.56° C 45% 1021 hPa - - - -
1788613419 21.11° C 44% 1021 hPa - - - -
1788613419 21.11° C 44% 1021 hPa - - - -
1788613138 20° C 45% 1020.7 hPa - - - -
1788613138 20° C 45% 1020.7 hPa - - - -
1788612857 21.11° C 44% 1021.2 hPa - - - -
1788612857 21.11° C 44% 1021.2 hPa - - - -
1788612857 21.11° C 44% 1021.2 hPa - - - -
1788612577 21.11° C 43% 1021.1 hPa - - - -

* Rain since midnight (hover to see other rain measurements)
** Current wind speed in m/s (hover to see current wind gust speed)